Weather History for KGLD - August, 2013

Change the Weather History Date:

Thursday, August 1, 2013

  Actual Average Record
Temperature  
Mean Temperature 82 °F 76 °F  
Max Temperature 96 °F 89 °F 107 °F (1938)
Min Temperature 67 °F 62 °F 45 °F (1995)
Degree Days  
Heating Degree Days 0 0  
Month to date heating degree days 0 0  
Since 1 June heating degree days 38 41  
Since 1 July heating degree days 7 4  
Cooling Degree Days 17 11  
Month to date cooling degree days 17 11  
Year to date cooling degree days 687 565  
Since 1 June cooling degree days 598 524  
Growing Degree Days 33 (Base 50)    
Moisture  
Dew Point 60 °F    
Average Humidity 56    
Maximum Humidity 84    
Minimum Humidity 28    
Precipitation  
Precipitation T in 0.11 in 2.28 in (1999)
Month to date precipitation T 0.11  
Year to date precipitation 7.85 13.31  
Snow  
Snow 0.00 in 0.00 in - ()
Month to date snowfall 0.0 0.0  
Since 1 June snowfall 0.0 0.0  
Since 1 July snowfall 0.0 0.0  
Snow Depth 0.00 in    
Sea Level Pressure  
Sea Level Pressure 29.92 in    
Wind  
Wind Speed 15 mph (South)    
Max Wind Speed 30 mph    
Max Gust Speed 40 mph    
Visibility 10 miles    
Events Rain , Thunderstorm    
T = Trace of Precipitation, MM = Missing Value Source: NWS Daily Summary

Daily Weather History Graph

Daily Weather History Graph

Search for Another Location

Airport or City:

Trip Planner

Search our weather history database for the weather conditions in past years. The results will help you decide how hot, cold, wet, or windy it might be!

Date:

Astronomy

Aug. 01, 2013 Rise Set
Actual Time 5:46 AM MDT 7:58 PM MDT
Civil Twilight 5:16 AM MDT 8:28 PM MDT
Nautical Twilight 4:40 AM MDT 9:05 PM MDT
Astronomical Twilight 4:00 AM MDT 9:45 PM MDT
Moon 1:24 AM MDT (8/1) 4:09 PM MDT (8/1)
Length of Visible Light 15h 11m
Length of Day
14h 11m
Waning Crescent, 23% of the Moon is Illuminated
Aug 1
Waning Crescent
Aug 6
New
Aug 14
First Quarter
Aug 20
Full
Aug 28
Last Quarter

Hourly Weather History & Observations

Time (MDT) Temp. Heat Index Dew Point Humidity Pressure Visibility Wind Dir Wind Speed Gust Speed Precip Events Conditions
12:53 AM 68.0 °F - 60.1 °F 76% 30.12 in 10.0 mi WNW 9.2 mph - 0.00 in   Partly Cloudy
1:53 AM 69.1 °F - 59.0 °F 70% 30.03 in 10.0 mi West 20.7 mph 32.2 mph N/A   Partly Cloudy
2:53 AM 69.1 °F - 57.0 °F 65% 30.04 in 10.0 mi SW 18.4 mph 27.6 mph 0.00 in Rain Light Rain
3:53 AM 73.9 °F - 55.0 °F 52% 29.99 in 10.0 mi SW 16.1 mph - 0.00 in   Mostly Cloudy
4:53 AM 73.9 °F - 57.9 °F 57% 29.98 in 10.0 mi SW 16.1 mph 25.3 mph 0.00 in   Partly Cloudy
5:53 AM 72.0 °F - 59.0 °F 64% 29.99 in 10.0 mi SW 12.7 mph - N/A   Clear
6:53 AM 71.1 °F - 57.9 °F 63% 30.02 in 10.0 mi SE 5.8 mph - N/A   Clear
7:53 AM 72.0 °F - 57.0 °F 59% 30.05 in 10.0 mi SSE 10.4 mph - N/A   Clear
8:53 AM 75.0 °F - 57.0 °F 53% 30.02 in 10.0 mi South 13.8 mph - N/A   Clear
9:53 AM 80.1 °F 80.7 °F 59.0 °F 48% 30.00 in 10.0 mi South 16.1 mph 23.0 mph N/A   Clear
10:53 AM 82.0 °F 82.1 °F 59.0 °F 45% 29.98 in 10.0 mi South 13.8 mph 23.0 mph N/A   Clear
11:53 AM 87.1 °F 86.7 °F 60.1 °F 40% 29.96 in 10.0 mi South 8.1 mph 19.6 mph N/A   Clear
12:53 PM 90.0 °F 89.1 °F 59.0 °F 35% 29.91 in 10.0 mi South 13.8 mph 23.0 mph N/A   Clear
1:53 PM 91.9 °F 91.2 °F 59.0 °F 33% 29.88 in 10.0 mi South 15.0 mph - N/A   Scattered Clouds
2:53 PM 95.0 °F 93.7 °F 57.0 °F 28% 29.84 in 10.0 mi SSE 17.3 mph 25.3 mph N/A   Scattered Clouds
3:53 PM 93.0 °F 92.0 °F 57.9 °F 31% 29.80 in 10.0 mi South 17.3 mph 27.6 mph N/A   Clear
4:53 PM 93.0 °F 91.4 °F 55.9 °F 29% 29.78 in 10.0 mi South 21.9 mph 26.5 mph N/A   Partly Cloudy
5:21 PM 89.6 °F 88.1 °F 57.2 °F 33% 29.94 in 10.0 mi South 18.4 mph 33.4 mph N/A Thunderstorm Clear
5:36 PM 84.2 °F 83.8 °F 59.0 °F 42% 29.94 in 10.0 mi SE 17.3 mph 26.5 mph N/A Thunderstorm Clear
5:53 PM 81.0 °F 81.9 °F 62.1 °F 52% 29.79 in 10.0 mi SE 19.6 mph 28.8 mph N/A Thunderstorm Thunderstorm
6:10 PM 77.0 °F - 62.6 °F 61% 29.93 in 10.0 mi SE 20.7 mph 33.4 mph N/A   Partly Cloudy
6:19 PM 78.8 °F - 62.6 °F 57% 29.93 in 10.0 mi SE 28.8 mph 34.5 mph N/A Thunderstorm Partly Cloudy
6:34 PM 77.0 °F - 62.6 °F 61% 29.93 in 10.0 mi ESE 28.8 mph 36.8 mph N/A   Clear
6:53 PM 80.1 °F 80.6 °F 57.9 °F 47% 29.77 in 10.0 mi ESE 18.4 mph 27.6 mph N/A   Partly Cloudy
7:53 PM 71.1 °F - 61.0 °F 70% 29.83 in 10.0 mi SE 24.2 mph 34.5 mph N/A   Clear
8:53 PM 70.0 °F - 63.0 °F 78% 29.81 in 10.0 mi South 16.1 mph - N/A   Clear
9:53 PM 73.0 °F - 61.0 °F 66% 29.79 in 10.0 mi South 12.7 mph - N/A   Clear
10:53 PM 70.0 °F - 64.0 °F 81% 29.82 in 10.0 mi South 17.3 mph 24.2 mph N/A   Clear
11:53 PM 70.0 °F - 62.1 °F 76% 29.80 in 10.0 mi SSW 13.8 mph - N/A   Clear